Theta_e
325 317 317 318 317 315 312 305 297 292 285 285 282 284 289 292 292 292 292 293 291 294 294 298 296 296 296 294 295 296 296 292 294 288 289 299 307 308 308 310 309 309 311 312 315 319 323 332 337 339 340 341 341 342 343 344 344 344 344 345 345 346 347 347 348 347 347 348 348 347 349 345 346 347 347 349 348 347 348 348 350 351 349 349 349 349 350 351 352 351 349 349 348 350 350 350 350
320 316 317 317 316 314 309 297 288 283 284 283 285 284 288 289 292 290 290 291 293 295 296 299 299 300 300 299 298 297 297 297 298 298 301 306 305 305 308 308 307 306 307 309 311 316 321 327 335 336 337 338 339 339 340 341 341 341 341 342 342 343 344 345 346 346 347 347 347 347 347 348 348 346 346 346 347 346 345 344 346 349 349 348 350 350 349 349 350 350 350 349 348 350 350 351 350
318 317 317 315 313 308 302 297 294 280 282 283 283 286 289 291 290 290 290 293 296 296 294 295 295 294 294 294 295 292 291 300 300 301 301 304 301 302 307 308 307 305 305 306 308 312 319 326 332 333 335 335 336 336 336 336 337 337 338 340 340 340 341 342 343 344 345 345 346 346 346 346 347 347 345 346 347 345 345 345 345 345 347 348 349 349 349 349 350 349 349 349 349 350 350 350 350
314 317 314 311 309 298 296 288 285 283 285 279 282 287 289 289 291 291 292 294 296 293 293 294 293 296 293 292 293 296 294 296 300 300 298 300 302 305 306 306 306 302 303 304 304 309 316 325 327 329 330 331 331 331 331 332 332 333 334 335 335 336 338 338 340 341 342 343 344 344 345 344 345 346 346 344 346 346 344 344 344 345 346 347 347 349 349 348 348 349 349 349 349 349 349 350 350
315 316 312 306 301 299 290 287 282 282 284 281 286 285 288 288 291 289 292 292 291 291 293 293 292 295 297 295 295 292 294 297 300 302 300 302 304 303 304 306 302 300 301 301 302 306 313 323 323 325 327 328 328 328 328 328 328 329 329 330 331 332 333 334 336 338 339 340 341 342 342 342 343 343 344 344 344 344 344 344 344 345 344 345 347 346 349 349 349 349 349 349 349 349 349 350 350
310 308 310 311 305 298 291 288 287 286 285 284 285 289 288 288 291 290 292 292 294 293 292 291 291 292 292 294 296 292 297 295 299 300 299 300 304 304 303 306 299 299 299 300 301 303 312 320 321 322 324 325 325 325 325 325 325 326 326 327 328 328 329 330 333 334 335 335 337 338 339 340 341 341 341 342 342 343 343 343 343 343 343 344 345 347 345 347 348 348 348 347 347 348 348 349 349
310 304 301 303 299 296 290 283 284 282 291 287 291 289 291 289 291 292 291 293 295 294 293 294 295 294 291 293 295 297 298 299 298 300 301 302 302 303 303 298 298 297 298 299 299 301 310 319 320 320 321 322 323 323 323 323 324 324 325 325 326 326 327 328 330 330 328 329 332 334 336 337 338 338 339 340 339 340 341 341 342 341 342 343 344 345 346 346 345 346 346 346 347 347 348 348 349
309 307 300 295 290 286 284 283 286 282 289 288 290 290 290 289 288 290 290 291 292 292 294 293 292 290 291 294 291 296 297 297 300 301 299 299 301 302 302 297 297 296 297 297 298 301 311 316 317 317 317 320 321 321 322 322 323 323 323 324 324 325 326 326 326 325 325 327 329 331 332 333 335 337 338 338 338 338 339 340 340 341 341 341 342 343 344 345 346 345 346 346 346 347 347 348 348
303 303 298 295 288 285 282 285 287 287 286 289 289 290 301 289 290 289 290 290 292 292 293 293 292 290 290 291 290 293 295 297 297 302 299 299 299 300 302 298 296 296 297 297 298 299 302 312 313 314 314 316 318 319 320 321 321 321 321 321 322 323 324 324 323 322 322 324 326 326 325 326 327 328 330 333 334 335 336 337 337 338 339 340 341 342 342 344 345 345 343 344 345 346 346 347 348
299 300 294 291 286 287 282 285 286 288 290 290 290 294 290 289 290 290 291 292 292 293 292 292 291 289 291 290 290 293 294 297 297 297 297 298 299 299 300 299 298 296 295 296 297 298 301 308 311 311 312 313 315 317 318 318 318 318 319 319 319 320 320 320 320 319 320 322 323 322 321 321 321 323 324 325 328 329 330 332 333 335 337 339 339 340 341 342 343 344 344 344 344 344 345 346 347
298 294 293 289 282 283 285 284 282 285 290 288 288 290 289 289 290 289 290 291 291 292 292 291 291 290 290 289 289 293 295 294 294 293 297 297 297 298 296 298 298 297 295 296 297 297 297 300 307 309 309 310 311 314 315 315 316 316 316 317 317 317 317 317 317 317 318 319 320 319 318 318 318 320 320 321 321 320 321 323 324 330 334 336 338 339 340 340 341 343 342 341 342 342 342 344 346
293 293 290 282 283 284 282 285 286 287 287 287 293 292 291 290 290 290 290 293 290 290 291 292 291 290 289 288 289 292 292 293 292 295 296 296 294 296 296 295 297 297 297 294 295 295 296 296 298 305 307 307 307 309 311 311 312 313 313 314 314 314 314 314 314 314 315 315 317 316 315 315 315 316 317 318 318 317 318 318 320 324 329 331 331 333 335 337 339 340 340 340 340 341 341 342 343
292 290 287 286 287 286 284 285 286 290 284 288 291 293 290 291 291 292 290 290 289 290 290 291 293 290 287 286 289 292 290 292 294 294 295 293 294 293 294 293 296 296 296 296 294 294 295 295 296 298 302 304 304 305 307 308 309 310 311 311 311 311 311 312 311 311 311 312 313 312 311 311 310 312 313 314 315 314 315 316 317 320 320 321 323 324 327 330 332 334 334 336 338 340 341 341 341
292 291 286 288 284 283 283 285 284 287 286 289 290 291 290 290 290 289 291 290 289 289 291 292 293 290 288 287 290 288 289 292 292 293 293 294 294 293 294 293 294 293 295 294 293 292 293 295 296 295 295 295 295 299 302 306 306 307 308 308 308 309 309 309 309 308 308 309 309 309 307 307 307 308 309 310 311 310 311 312 314 317 318 319 320 323 326 329 330 331 332 334 335 337 339 339 340
299 290 287 284 284 285 283 286 288 284 287 287 292 290 289 291 289 289 290 290 290 290 290 293 294 292 289 288 286 289 290 292 292 294 293 293 293 292 293 292 293 293 292 292 293 292 292 294 294 294 295 294 295 295 294 297 305 304 305 305 306 306 306 306 306 306 305 306 306 306 305 305 304 305 306 306 307 307 307 307 309 313 315 317 318 321 325 327 325 325 327 330 332 335 336 337 337
295 292 286 287 286 284 286 286 284 285 288 288 291 288 290 290 290 291 290 291 290 290 290 292 290 290 290 292 289 291 291 291 293 292 290 291 291 292 290 290 290 291 292 292 292 292 291 292 293 294 294 293 294 294 294 294 302 303 303 304 304 304 304 304 304 304 303 303 304 305 304 301 301 300 303 302 304 305 305 304 307 311 312 313 316 320 323 321 321 324 326 327 329 330 332 331 331
295 291 289 282 288 285 286 286 286 287 286 288 290 290 291 290 290 288 289 289 290 289 286 287 288 289 288 288 290 291 290 296 295 290 290 290 288 288 288 288 291 289 292 290 291 291 291 291 292 293 293 293 293 294 294 294 298 300 298 301 302 302 303 302 302 301 301 300 302 303 301 296 296 296 296 299 302 300 303 305 305 307 309 310 312 315 316 317 320 324 324 325 326 328 326 327 327
293 288 284 287 283 285 287 288 289 287 289 290 289 288 289 289 289 290 289 289 285 286 286 286 287 287 288 289 289 290 290 290 289 288 288 288 289 287 287 288 287 287 289 290 290 291 290 290 290 292 292 292 292 294 294 294 294 296 292 292 295 297 299 300 295 296 299 294 300 297 296 296 295 295 296 302 297 299 299 303 304 305 306 307 308 312 312 314 319 322 322 322 321 320 322 325 326
288 285 283 287 285 287 291 288 289 290 291 290 290 287 290 290 289 289 288 286 286 287 287 285 286 287 288 288 289 289 288 288 288 286 287 287 287 287 287 288 286 287 288 288 290 290 290 290 290 291 291 291 291 291 293 293 291 291 291 292 294 297 296 295 292 293 292 293 294 295 296 294 295 294 296 300 300 301 299 302 302 303 303 304 306 308 309 311 317 319 317 317 316 314 315 318 323
291 288 286 284 288 287 288 287 290 289 290 289 289 289 289 290 289 289 290 284 285 287 286 284 284 285 286 287 287 287 287 287 287 286 286 285 285 285 285 287 286 287 288 289 290 292 289 290 289 290 292 291 290 291 292 291 290 290 290 291 292 291 291 292 291 291 291 292 293 294 294 294 294 293 299 300 299 294 295 299 300 300 300 301 304 304 306 308 313 314 313 312 312 310 310 313 316
293 287 283 290 288 291 292 287 288 288 290 289 288 288 289 289 289 289 286 287 285 286 288 290 287 287 287 286 286 286 286 286 286 286 285 286 286 287 285 286 286 287 288 290 289 290 289 289 289 289 290 291 290 290 290 291 291 289 289 290 290 290 290 290 290 290 290 291 291 293 293 293 293 293 293 293 293 293 293 293 294 294 294 294 302 298 299 303 308 306 306 306 305 306 307 309 311
290 291 288 289 288 291 291 289 289 288 286 287 287 290 289 289 290 288 288 289 289 290 291 289 289 289 287 286 286 285 285 286 286 286 285 286 286 285 286 286 286 286 290 287 287 287 288 288 288 288 289 290 289 289 289 292 290 289 289 291 290 289 290 289 289 289 290 290 290 292 292 291 291 292 292 292 292 292 292 293 293 293 293 294 297 296 298 301 303 303 303 303 303 303 304 306 308
292 288 288 288 288 291 291 289 289 288 288 287 286 289 289 290 288 287 288 292 290 289 288 289 287 289 288 287 286 285 284 284 284 286 286 286 286 287 286 286 285 286 286 286 286 287 290 288 288 288 289 290 289 289 289 289 288 288 288 291 291 289 290 289 289 289 289 289 290 291 291 290 290 290 291 291 291 291 292 292 292 292 292 293 295 295 297 299 301 301 301 300 301 301 302 304 305
290 292 287 292 287 290 291 292 287 287 289 289 288 289 289 288 288 287 287 291 287 285 286 288 288 287 286 285 285 285 285 284 284 285 285 286 286 287 287 287 287 286 286 286 286 286 288 288 288 286 288 290 288 289 288 288 287 289 290 292 288 292 291 289 288 289 290 289 290 290 291 289 289 289 290 290 290 291 291 292 291 291 292 292 294 295 296 297 299 299 299 299 299 300 301 302 303
290 290 289 290 288 288 288 288 288 286 286 287 288 289 289 289 289 285 288 291 287 286 286 287 286 285 284 285 284 285 284 284 284 285 287 285 285 289 286 287 287 285 285 286 287 286 287 290 288 286 287 287 288 288 288 288 287 288 288 287 287 295 289 288 289 289 288 288 288 289 290 289 289 289 289 290 290 290 291 291 291 291 291 292 293 293 295 296 297 297 297 297 298 298 299 300 302
290 291 289 288 290 290 288 290 287 287 287 287 289 288 286 285 287 287 290 287 285 286 286 286 285 285 284 284 284 284 284 284 285 284 286 285 286 285 285 286 286 285 285 285 286 287 287 289 287 287 287 289 289 288 288 288 288 287 288 288 287 292 287 289 289 287 287 287 288 289 289 289 289 289 289 289 289 289 289 289 290 290 290 291 292 292 294 295 295 296 296 296 297 297 298 299 301
290 290 289 290 290 288 289 290 290 286 287 286 289 286 287 287 288 288 284 285 285 285 285 283 285 284 284 284 284 284 284 284 285 285 286 285 285 284 285 284 285 284 287 285 286 286 290 286 287 287 287 291 289 287 289 288 288 287 288 287 287 288 288 290 288 287 287 287 288 288 288 289 289 288 288 287 288 288 288 288 289 289 289 290 291 291 292 293 294 295 295 295 296 296 298 299 300
289 290 288 288 285 286 286 287 286 288 290 285 287 286 286 286 285 289 285 285 285 285 283 283 283 284 284 284 284 284 284 285 285 284 285 283 284 284 283 284 284 284 284 285 285 288 286 286 286 287 287 289 288 287 289 288 287 287 288 287 287 288 289 287 287 287 288 286 287 287 287 287 289 287 287 287 287 287 286 286 286 286 287 288 288 289 289 291 293 293 294 295 296 296 297 298 299
289 288 289 286 285 288 288 288 288 287 290 286 287 288 285 284 286 288 285 285 285 284 283 283 283 283 283 283 284 284 284 284 283 284 284 284 284 284 284 284 285 284 284 284 285 286 286 286 289 287 288 287 286 287 287 287 287 287 287 287 287 290 287 287 286 286 286 286 286 286 286 286 287 286 286 286 286 285 285 284 284 285 285 286 286 287 287 289 290 292 292 294 295 295 296 296 298
289 287 286 288 285 286 289 287 286 287 290 285 289 285 285 287 291 283 285 284 283 283 282 283 283 282 282 282 283 284 283 283 283 284 283 283 283 284 283 283 285 283 284 285 284 285 288 288 289 289 290 287 289 288 290 287 286 286 289 286 288 287 286 285 287 286 286 286 286 285 285 285 286 285 285 284 284 284 284 284 284 284 284 285 285 286 285 286 287 288 291 292 294 294 294 295 295
289 287 283 282 284 283 288 287 287 288 289 287 289 284 289 287 287 285 284 285 284 284 283 283 282 282 282 282 283 284 284 283 284 283 283 283 283 283 283 282 284 283 287 283 284 284 286 285 290 287 290 287 286 285 287 286 288 287 285 285 286 286 287 285 284 285 285 285 285 284 285 286 285 284 284 284 283 283 283 283 283 283 284 284 284 285 285 285 285 286 288 289 291 293 293 294 295
281 286 282 278 284 282 284 287 286 289 288 287 289 284 287 291 289 285 285 284 284 285 284 283 282 282 282 282 282 283 283 283 284 283 284 283 282 283 282 283 283 282 283 283 285 285 285 284 288 285 286 286 285 287 287 286 285 285 285 289 286 285 285 285 284 284 284 284 284 284 284 285 284 283 283 283 282 282 282 282 282 283 283 283 283 283 284 283 283 284 285 287 288 290 292 293 294
278 285 282 282 281 281 284 286 284 287 288 288 288 286 286 287 284 283 283 284 283 284 283 283 282 282 282 283 283 282 282 282 282 283 283 283 282 282 282 283 282 283 283 283 283 283 284 284 288 285 285 285 285 284 285 285 285 284 284 285 285 285 284 283 283 284 284 283 283 283 284 284 283 283 282 282 282 281 281 281 282 282 282 282 281 282 282 283 282 283 283 285 287 288 291 292 293
280 279 283 279 283 282 283 284 285 285 287 286 287 284 287 290 286 282 283 284 282 283 284 283 283 283 283 283 282 282 282 282 282 283 283 282 282 282 282 286 283 283 283 283 283 284 283 284 284 285 285 286 285 285 286 285 285 284 284 284 286 285 283 283 283 283 282 284 283 283 284 283 284 282 282 282 281 282 281 281 281 281 281 281 280 280 281 282 282 282 282 283 284 284 286 289 291
283 281 282 283 278 280 283 282 285 286 287 285 284 285 287 290 291 283 283 283 283 283 284 285 284 283 283 283 283 283 283 282 283 283 283 282 282 282 282 283 283 282 282 282 282 282 283 283 285 286 288 285 284 284 284 285 284 283 283 283 282 282 282 282 283 282 282 282 283 283 283 283 282 281 282 281 280 281 280 280 280 280 280 280 279 279 280 281 282 281 281 281 283 283 284 287 290
284 282 280 279 280 283 280 283 282 285 283 283 283 285 288 289 290 289 283 283 283 284 284 284 283 283 283 283 283 283 283 283 284 283 283 283 282 282 282 282 282 282 281 281 283 282 282 282 283 283 285 283 283 284 284 283 283 283 282 281 281 282 281 283 283 281 282 281 283 283 282 281 281 282 281 281 280 280 280 279 279 280 280 279 279 279 279 280 280 280 281 281 281 283 285 286 289
281 279 280 280 279 281 282 282 283 283 283 283 285 284 285 287 289 290 287 283 283 283 283 283 284 283 283 283 283 283 283 284 284 283 283 282 282 282 282 281 281 281 281 281 282 282 282 283 284 282 283 283 284 283 282 282 281 281 281 281 280 280 281 283 282 281 282 281 282 282 281 281 281 280 281 280 280 280 279 279 279 279 279 279 279 279 280 280 281 280 280 281 281 281 282 286 289
282 282 280 281 280 281 285 284 283 281 284 280 280 281 283 285 288 290 287 283 283 283 283 283 284 284 284 283 283 283 284 283 283 282 282 281 282 282 281 281 282 281 281 280 281 282 282 281 282 282 282 282 282 282 283 283 281 281 280 280 280 280 280 280 280 281 281 283 282 281 281 280 280 280 280 280 280 279 278 278 278 278 278 278 279 280 279 280 279 279 279 279 281 281 282 285 288
281 282 280 280 282 280 283 282 281 282 282 282 282 282 285 287 289 291 290 288 289 287 286 287 285 284 284 284 284 283 283 282 282 283 282 281 282 281 281 281 281 282 282 282 281 281 281 281 282 282 282 282 282 283 283 281 281 282 281 280 280 280 280 281 281 281 282 282 280 280 281 280 280 279 279 280 279 279 278 278 278 278 278 279 278 277 277 277 278 278 279 278 279 282 284 287 287
280 280 281 282 282 282 282 281 281 282 282 282 282 283 284 287 288 289 291 290 289 288 287 287 287 286 285 285 284 284 283 283 282 282 281 281 281 281 280 280 281 281 282 281 280 281 281 283 281 281 282 282 282 282 286 282 282 282 282 281 281 280 280 282 282 281 280 279 279 279 279 280 279 279 279 279 279 278 278 278 278 278 278 278 277 276 276 277 277 277 278 278 279 279 282 285 289
280 281 280 281 282 282 282 282 280 281 280 280 281 284 287 286 285 286 284 281 285 287 286 286 285 286 286 285 285 285 284 283 283 282 281 280 280 280 280 281 280 280 281 281 281 281 282 282 282 281 281 281 281 284 284 282 283 281 280 280 281 280 280 280 278 278 279 279 280 278 278 279 279 279 278 278 279 278 278 278 278 277 277 277 277 277 276 276 277 277 277 277 278 278 278 281 285
276 279 284 284 282 282 280 279 281 279 278 279 281 281 279 276 281 284 286 283 284 283 285 286 286 285 284 284 285 284 285 284 284 282 281 281 281 280 279 280 280 280 281 281 281 282 281 281 281 281 281 281 281 281 281 282 282 280 278 278 277 277 277 277 277 277 278 278 278 279 279 278 278 278 278 278 278 279 277 277 277 277 277 277 277 277 276 276 276 277 277 278 278 279 278 279 280
281 283 281 282 281 281 281 280 282 277 275 280 279 278 280 279 284 283 284 283 286 285 283 286 285 284 284 285 285 284 283 283 283 282 281 280 280 279 279 279 280 280 281 281 281 281 281 281 280 280 281 281 281 281 281 283 279 279 278 278 277 277 276 277 277 278 278 278 278 278 278 278 278 278 278 277 277 278 278 277 277 277 277 276 277 276 276 276 276 277 278 278 278 278 278 276 277
280 280 279 281 281 282 280 280 281 280 278 279 280 281 278 280 283 288 289 286 286 286 287 287 286 284 284 285 285 284 283 283 283 282 281 281 280 280 280 280 280 281 282 280 281 281 280 281 280 280 280 283 281 281 280 281 280 279 278 277 279 278 277 277 278 277 278 279 278 278 277 277 277 277 277 277 277 277 277 277 277 276 276 276 277 276 276 276 277 277 278 278 278 277 277 276 276
280 281 280 280 281 280 278 281 278 277 276 278 276 279 276 276 275 277 280 282 284 285 286 287 287 285 284 285 284 284 283 283 283 282 281 280 280 280 281 280 280 281 280 281 281 281 281 280 280 280 280 280 280 279 281 280 281 280 278 278 277 278 278 278 279 279 278 277 276 277 276 277 277 277 277 277 277 277 277 277 276 276 276 275 277 276 276 276 276 275 275 276 276 276 277 277 277
283 280 280 279 279 279 278 276 280 275 273 279 275 279 274 280 279 280 278 280 281 283 286 287 287 286 284 284 283 283 282 282 282 282 281 280 280 280 281 281 280 280 280 282 281 280 280 279 280 280 279 279 279 279 279 278 278 279 277 277 276 277 277 277 277 276 276 276 276 276 276 276 276 276 276 276 276 276 276 276 276 275 275 275 277 276 275 275 275 275 275 275 276 276 277 277 277
282 281 281 280 278 276 275 274 273 271 273 280 280 278 279 276 279 279 281 281 283 284 283 284 284 284 282 282 283 282 282 281 281 281 281 280 280 280 280 280 280 280 279 279 280 280 279 279 278 278 278 278 279 278 278 278 278 277 277 277 276 276 276 276 276 276 276 275 275 275 275 275 276 275 276 276 276 276 275 276 276 275 276 276 276 275 274 274 275 275 275 275 275 275 275 275 276
281 281 279 282 281 275 270 265 269 270 274 275 275 277 280 273 277 279 282 280 280 285 284 284 285 285 284 281 281 282 281 281 280 280 279 279 279 279 278 279 279 279 279 278 279 279 279 278 278 278 278 278 277 278 278 277 277 277 277 276 276 276 276 276 275 275 275 274 275 274 275 275 275 275 275 275 275 275 275 275 275 275 275 275 274 275 275 275 275 275 275 274 274 274 274 274 274
281 279 276 275 271 270 272 266 270 268 274 274 272 275 275 277 283 280 281 284 283 281 285 287 287 287 282 280 281 281 281 279 279 279 279 279 279 279 278 279 278 278 279 279 279 279 278 278 278 278 277 277 277 277 277 277 277 276 276 276 276 277 276 276 275 275 275 274 274 274 274 274 274 274 274 274 274 275 275 274 274 274 274 274 275 274 274 274 274 274 274 274 274 274 274 274 274
280 281 275 272 270 269 268 267 263 268 272 274 276 275 276 282 283 286 287 289 288 286 283 283 284 285 282 280 280 280 280 279 279 279 279 279 280 279 279 279 279 279 278 279 278 279 278 278 277 277 277 277 277 277 276 276 276 276 276 276 276 276 275 275 275 274 275 274 275 274 274 274 273 273 274 274 274 274 275 275 275 274 274 274 274 274 274 274 274 274 274 273 273 274 274 275 277
281 280 282 279 272 267 267 265 271 276 274 273 274 273 273 274 278 280 285 288 287 283 279 280 279 278 279 279 279 279 279 278 279 279 279 280 280 279 279 279 279 279 278 278 278 278 277 277 277 277 276 276 276 276 276 276 276 276 275 275 275 275 275 275 275 275 275 274 274 273 273 273 273 273 274 274 275 274 274 274 274 274 274 274 274 274 274 274 274 274 273 273 273 274 274 274 274
279 278 280 277 279 277 276 271 267 269 272 274 269 276 275 281 280 281 277 277 279 278 279 278 279 279 279 279 279 279 279 278 279 279 279 279 279 279 279 279 279 278 278 278 277 277 277 277 277 276 276 276 276 277 276 275 275 275 275 274 274 275 276 275 275 275 274 274 273 273 273 273 273 273 274 274 274 274 274 274 274 274 274 274 274 274 273 273 273 273 272 273 272 274 273 273 274
280 281 278 280 281 282 275 271 269 268 265 276 268 275 280 279 285 284 283 279 281 278 278 278 278 278 277 279 279 278 278 278 278 279 279 279 278 278 279 278 278 278 278 278 278 278 278 277 277 276 275 275 275 276 275 275 275 274 274 274 274 273 273 273 273 272 273 273 273 273 273 273 273 273 273 274 274 274 274 273 273 273 273 273 273 273 273 273 273 272 272 272 272 272 272 272 272
280 274 279 281 281 279 278 272 268 263 267 274 269 276 279 278 279 278 279 279 279 280 280 279 276 276 277 279 279 279 278 278 279 279 279 279 279 278 278 279 278 278 278 277 278 277 277 277 276 275 276 275 275 275 274 274 274 274 273 273 273 273 273 272 272 272 272 272 272 272 272 272 272 273 273 274 274 273 273 274 273 273 273 273 273 273 273 273 273 272 272 272 273 273 272 273 273
280 278 281 281 275 275 274 267 269 266 266 268 273 275 278 281 281 282 278 279 280 280 281 278 277 276 277 279 279 278 277 278 278 278 278 278 278 278 278 278 278 278 278 278 277 277 276 276 275 275 275 275 275 275 274 274 274 274 274 273 272 272 272 272 272 272 272 271 271 271 271 272 272 272 273 272 272 272 272 272 272 272 273 272 273 273 273 273 273 272 272 272 273 273 273 273 275
280 281 281 280 278 271 271 276 269 270 269 266 275 277 278 281 281 282 285 279 280 281 279 279 279 279 279 279 279 278 277 278 278 278 278 279 278 278 278 278 278 277 277 277 276 276 275 275 276 275 275 275 274 273 273 273 273 273 272 272 272 272 272 271 271 271 270 270 270 270 271 271 271 272 272 272 271 272 272 272 272 272 272 273 272 273 273 273 272 272 272 272 272 272 272 272 273
277 279 276 276 275 277 276 274 272 271 267 269 268 273 279 283 285 285 286 283 281 281 282 281 280 279 279 280 280 279 278 278 278 279 279 278 278 278 278 278 278 277 277 276 276 276 275 275 274 275 274 273 273 273 272 272 272 271 271 270 270 270 270 270 270 270 269 269 270 271 270 271 271 271 271 271 271 271 272 272 272 272 272 272 272 271 272 272 272 271 271 271 271 272 271 272 272
282 282 280 281 276 273 270 274 273 268 273 269 267 274 281 286 286 286 284 284 281 281 284 285 281 280 279 279 279 279 278 278 279 279 278 278 278 277 277 277 276 276 276 276 276 275 274 274 274 273 273 272 271 271 270 270 270 270 270 269 269 269 269 269 268 268 269 269 269 269 270 270 270 270 271 271 271 271 272 272 272 271 271 271 271 271 271 271 271 271 270 271 271 271 271 271 271
Wind_Speed
3 2 0 2 3 2 1 6 1 2 3 1 0 1 1 1 1 1 1 1 1 3 3 2 3 3 1 3 10 5 0 4 0 3 2 2 1 2 5 7 8 8 8 8 8 8 9 12 17 18 19 19 19 19 19 20 20 20 20 19 19 19 18 16 14 14 14 13 13 12 13 13 14 15 13 9 9 8 10 12 8 7 8 10 11 12 13 13 13 13 15 15 12 9 7 9 9
1 1 2 0 0 1 1 1 4 3 6 2 0 1 2 1 1 2 3 2 2 3 1 11 11 14 15 12 8 4 6 3 1 2 1 1 3 2 6 7 6 7 7 8 8 8 9 10 17 18 19 19 19 19 20 20 20 20 20 20 21 20 20 20 19 18 17 16 15 15 14 15 15 14 14 16 14 14 15 14 13 10 10 11 11 13 13 13 13 14 13 14 13 10 9 8 9
2 1 1 2 2 4 2 3 1 1 1 1 2 5 1 1 2 1 2 6 8 7 4 7 6 4 2 2 5 3 2 1 2 1 2 3 3 6 7 7 5 5 6 6 8 9 8 10 16 19 19 19 20 20 21 20 21 21 21 21 21 21 21 21 21 21 21 20 19 17 17 17 16 15 14 14 12 13 14 15 15 16 15 13 13 13 13 13 13 14 14 14 14 12 10 7 8
1 4 2 3 1 2 1 4 5 5 0 2 1 2 1 2 4 4 1 6 9 5 1 2 5 1 4 7 1 2 3 1 0 2 1 3 1 4 6 5 6 4 6 6 7 7 7 11 18 19 20 20 20 21 21 21 21 21 21 21 21 21 21 22 22 22 22 22 21 20 20 20 19 17 16 14 16 16 16 15 16 16 17 18 18 15 14 14 13 14 13 13 14 12 11 9 6
3 2 2 3 3 1 3 1 4 2 0 5 2 3 3 3 7 4 1 2 3 3 1 2 5 3 1 4 0 1 3 1 3 1 2 1 3 3 4 4 4 5 7 7 7 7 7 16 18 19 20 21 21 21 21 21 21 21 21 21 21 20 20 21 21 21 22 22 22 22 21 22 21 21 20 19 16 16 16 16 15 14 16 18 18 19 17 15 15 14 14 14 14 13 11 9 9
5 3 3 1 0 2 5 2 3 1 3 5 1 1 3 5 5 4 1 3 1 1 1 2 4 4 2 1 1 1 1 3 1 2 1 1 3 4 3 3 2 6 5 6 7 6 7 17 19 20 21 21 21 21 21 21 21 21 21 21 21 21 21 21 21 21 21 21 21 22 21 21 21 21 21 20 19 19 18 18 18 18 17 17 18 16 18 18 15 15 15 15 14 13 12 10 10
1 3 5 3 2 4 3 3 2 2 0 4 0 0 4 3 5 9 5 4 1 3 2 3 6 7 5 1 2 1 1 2 1 0 1 0 2 3 3 1 3 7 6 6 6 7 10 17 19 20 20 20 20 20 20 20 21 21 21 21 21 21 21 21 22 22 22 22 21 21 22 22 22 21 21 21 21 19 19 19 19 19 19 19 19 19 19 19 20 18 16 16 15 13 11 10 8
2 0 2 2 1 4 3 1 1 3 1 4 1 1 1 3 5 4 3 3 4 3 1 4 2 5 1 3 3 1 1 0 1 1 2 2 1 1 2 2 7 7 6 5 5 6 10 17 18 19 20 20 20 20 21 21 21 21 21 21 21 21 21 21 21 22 22 22 22 22 23 22 22 22 23 23 23 22 22 21 21 20 20 20 20 20 20 19 17 19 20 17 16 12 10 10 10
5 6 0 3 3 3 3 2 0 2 4 1 3 6 1 4 6 4 1 1 2 2 6 3 0 2 3 3 2 2 0 2 1 2 2 1 1 1 2 4 6 6 6 5 5 5 6 14 18 19 20 20 20 20 20 20 21 21 21 21 21 21 21 21 21 21 21 21 22 22 22 22 22 22 22 23 23 22 22 22 22 21 21 20 20 20 20 20 20 18 19 20 18 15 13 11 11
2 2 1 2 3 2 2 1 3 2 1 2 1 1 4 3 4 2 6 3 4 8 4 1 1 3 5 5 2 1 2 1 0 4 2 1 0 0 3 4 4 5 5 6 5 5 6 11 17 19 19 20 20 20 20 20 20 20 20 21 21 21 21 21 21 21 21 21 21 21 21 21 22 22 22 21 21 22 23 23 23 22 21 21 22 21 21 21 21 21 21 20 21 21 18 13 11
1 5 2 3 5 2 3 3 3 2 1 3 5 5 3 4 5 3 1 4 2 5 1 4 4 6 5 2 3 2 1 2 4 4 0 0 0 1 4 3 3 4 5 5 4 5 6 6 14 18 19 20 20 20 20 20 20 20 20 20 21 21 21 21 21 21 21 21 20 21 21 21 21 21 21 21 21 22 22 22 22 22 23 22 22 22 22 21 21 20 21 21 21 20 21 20 15
1 1 2 3 2 5 4 5 1 3 4 3 2 1 1 5 4 4 4 8 3 3 4 5 4 6 4 2 2 1 1 3 3 2 1 0 1 2 3 2 4 4 4 4 4 5 5 5 6 11 16 18 19 20 20 20 20 20 20 20 20 20 20 21 21 21 21 20 20 21 21 21 21 21 21 21 21 22 22 22 22 21 22 23 24 24 23 23 23 22 21 20 20 21 20 21 19
2 1 6 6 0 1 1 3 3 1 2 3 3 0 1 5 4 8 6 4 5 6 3 5 6 3 4 4 1 0 4 4 3 2 1 1 1 1 1 3 4 4 5 5 6 6 5 5 6 6 9 13 14 16 18 19 20 19 20 20 20 20 20 20 20 20 20 20 20 20 20 20 20 20 20 21 22 22 22 22 21 21 21 21 21 22 22 22 22 22 22 21 20 20 21 21 21
4 6 4 1 1 3 4 3 1 3 3 3 2 0 1 2 1 3 8 6 5 5 1 1 6 3 2 2 2 4 6 5 3 2 1 0 1 1 2 3 4 4 4 4 5 5 5 5 6 6 6 7 7 9 12 17 19 19 19 19 19 19 19 20 20 20 20 19 19 18 18 18 18 19 19 20 21 21 22 22 22 22 21 21 21 21 21 21 21 22 22 22 21 20 20 20 20
0 2 6 5 1 1 2 5 10 5 6 4 2 3 2 2 2 2 4 6 5 1 2 1 2 2 5 9 5 10 8 6 5 2 2 1 2 2 3 3 3 4 4 4 4 5 5 5 6 6 6 6 7 7 6 9 16 17 18 18 18 19 19 18 18 18 18 18 18 17 16 14 15 15 16 17 19 20 20 19 21 22 22 22 22 21 20 21 21 22 22 23 22 22 21 20 20
4 5 4 3 2 3 4 2 1 3 6 4 2 6 6 1 0 3 2 0 2 2 1 4 1 1 1 9 4 9 9 6 4 3 3 3 2 2 3 2 3 3 3 4 5 4 4 5 5 6 6 6 6 6 6 6 9 14 14 15 16 17 18 18 17 16 13 13 14 14 14 9 9 8 13 10 15 17 17 16 19 20 21 22 22 21 21 21 21 21 21 22 22 22 22 22 21
2 3 2 4 2 3 3 4 6 4 4 3 0 3 4 3 0 1 1 1 6 1 2 0 2 1 2 2 1 10 7 6 6 4 3 3 2 2 2 4 3 4 3 4 4 5 5 5 5 6 5 6 5 5 4 5 6 9 7 9 11 13 14 14 14 12 10 8 9 8 8 7 7 7 7 7 9 9 13 15 18 20 21 21 21 21 22 22 21 20 20 21 23 23 22 20 15
1 2 5 1 1 3 5 6 10 1 5 4 5 5 5 2 1 1 1 6 3 2 2 3 2 2 1 0 2 5 5 7 4 5 4 4 1 2 3 2 2 4 4 4 4 5 5 5 5 5 5 5 5 5 4 4 4 6 5 5 4 6 7 8 7 6 8 6 9 7 6 6 6 5 6 8 7 8 8 13 15 19 20 20 20 20 21 21 21 20 20 21 22 21 22 11 11
3 2 2 2 3 3 5 3 5 1 2 5 5 3 4 5 9 4 3 1 1 2 1 2 1 1 3 3 4 5 5 5 5 4 6 6 4 5 4 2 4 3 5 4 5 4 4 4 4 4 4 4 5 4 4 4 5 4 5 5 4 5 5 4 4 5 5 6 6 6 5 5 6 5 6 8 8 10 9 12 14 16 17 19 19 19 19 20 20 20 21 20 20 20 12 10 10
1 2 1 2 6 3 4 3 5 2 3 4 4 1 1 1 4 3 2 4 1 8 7 1 4 5 6 4 3 4 4 5 5 6 6 5 4 5 4 4 3 3 2 1 2 3 4 4 3 3 3 4 4 4 4 5 5 4 5 4 4 4 4 3 4 4 4 4 5 5 5 5 5 5 6 8 8 6 7 9 11 12 12 12 16 11 13 14 20 17 18 19 12 8 9 9 10
1 2 2 2 3 0 2 5 4 2 0 2 1 1 1 1 2 4 4 5 7 8 8 13 17 13 12 9 7 5 7 7 6 5 6 5 4 3 4 3 3 2 0 0 3 3 3 3 4 4 3 4 4 5 5 6 5 6 5 5 5 3 4 4 4 4 4 5 5 5 4 4 5 5 5 5 5 6 6 7 7 8 8 8 10 8 8 9 9 9 9 10 8 9 9 9 9
2 0 1 2 1 1 3 4 4 3 3 5 1 3 5 2 0 4 10 9 9 11 13 12 6 15 16 14 10 6 7 8 7 6 6 6 6 5 2 1 1 2 1 5 2 3 3 3 4 3 4 5 4 4 4 5 6 6 6 6 6 6 6 6 6 6 5 5 4 5 5 5 5 5 4 5 5 6 6 6 7 7 8 8 8 8 7 8 8 8 8 9 9 8 8 9 9
0 1 1 3 2 1 1 1 3 6 3 4 3 4 4 6 2 4 8 13 5 1 2 7 5 10 10 7 8 7 7 7 7 7 6 6 4 4 3 2 4 4 3 3 2 2 3 5 5 5 5 5 6 4 5 5 6 5 6 6 6 6 6 6 6 6 6 5 5 5 6 6 6 6 6 6 7 5 6 6 7 6 7 7 8 8 8 8 8 8 8 8 8 9 9 8 9
3 1 1 0 3 3 1 1 4 3 9 6 4 3 5 4 6 2 8 14 4 4 4 5 8 7 7 10 8 9 9 8 7 6 6 6 5 4 3 4 1 0 2 2 3 2 3 4 4 4 4 4 4 4 3 5 4 4 5 4 6 6 6 6 5 5 5 6 5 6 5 5 6 7 7 8 8 7 7 7 6 6 6 7 7 7 8 8 8 7 8 9 9 8 9 10 9
1 1 1 1 1 4 2 1 0 2 3 0 4 5 5 9 3 2 10 14 1 1 3 8 9 9 7 8 9 7 7 5 6 5 3 2 3 2 2 2 2 3 4 1 0 1 2 2 3 3 4 3 3 2 3 3 3 4 4 4 5 5 5 5 5 5 6 6 5 6 6 7 7 6 7 7 7 8 8 8 8 7 7 7 7 7 7 8 9 8 8 8 8 9 9 9 9
1 0 1 0 2 2 1 1 3 4 1 3 3 6 3 4 2 7 14 5 3 3 6 8 9 10 10 10 9 9 8 8 7 6 6 4 2 5 3 4 4 4 3 2 1 1 1 2 3 2 2 2 2 2 3 3 4 4 5 4 5 4 5 5 4 5 5 6 6 6 7 6 7 7 7 7 8 8 8 8 8 8 8 8 8 8 8 8 8 9 9 9 9 9 9 9 9
2 1 2 2 2 2 2 6 3 1 2 3 5 4 2 1 3 11 2 4 6 7 7 5 10 12 10 8 7 7 9 9 10 6 4 4 4 6 5 4 4 4 2 2 1 1 1 2 2 3 3 3 3 3 3 3 4 4 4 4 5 5 5 5 6 6 6 6 6 6 6 7 7 7 7 8 7 7 7 7 8 9 9 9 9 9 9 9 9 8 9 9 9 9 9 8 9
1 1 2 1 5 3 3 1 4 1 3 5 5 3 0 1 2 14 3 4 7 11 7 8 8 9 9 8 8 6 6 7 6 5 9 7 7 6 5 6 4 4 4 3 2 0 2 1 1 2 3 3 4 4 3 4 4 4 4 5 5 6 5 5 6 5 4 4 4 5 4 6 4 4 5 6 7 7 8 8 8 8 8 9 10 11 12 11 10 10 9 9 9 9 9 8 8
0 1 2 3 6 1 0 2 1 3 3 4 4 2 4 3 11 3 5 7 6 8 10 9 9 7 7 7 7 7 8 7 5 6 7 6 5 5 7 5 6 5 3 3 1 2 1 2 2 3 3 4 4 4 4 3 4 4 4 5 5 4 5 5 5 5 4 3 4 4 4 4 4 4 5 6 7 6 6 7 7 7 7 8 9 11 13 12 11 11 11 10 9 9 9 9 8
0 3 1 5 6 3 0 0 1 3 2 4 2 6 7 10 18 1 4 9 5 5 7 8 8 7 7 7 8 7 7 6 6 7 6 5 6 6 6 5 4 5 4 1 2 3 1 1 1 2 2 3 3 3 3 3 3 3 3 4 4 5 4 4 4 4 2 2 3 3 3 4 4 5 6 6 7 7 7 7 8 8 8 9 9 9 9 10 11 11 11 11 10 11 10 10 9
0 1 4 0 5 3 1 1 1 4 1 1 0 3 13 5 9 3 7 9 14 11 10 9 9 8 8 9 8 9 9 6 8 7 5 6 5 5 6 5 4 4 3 3 4 2 1 1 0 1 1 1 1 2 2 3 2 3 3 3 3 3 3 4 5 5 1 1 2 3 3 4 4 5 5 6 6 6 6 7 7 8 9 9 9 8 9 9 10 12 11 12 11 11 11 11 10
2 2 4 3 1 5 8 3 5 4 1 2 2 6 13 15 6 5 8 9 9 12 11 11 10 10 10 9 9 9 9 6 6 6 6 7 6 6 6 7 5 4 4 4 3 1 1 0 1 1 0 1 1 1 2 2 3 3 3 3 3 3 3 4 5 4 1 2 3 3 3 4 4 3 3 4 4 4 5 5 6 6 8 8 9 9 10 10 10 10 11 12 14 12 11 13 9
5 1 4 4 0 6 8 1 2 3 1 1 5 8 7 9 3 1 5 9 9 9 9 10 13 12 11 11 10 7 6 8 6 7 7 7 6 6 7 6 6 6 5 5 4 4 3 2 1 1 2 1 1 2 2 3 3 3 3 3 3 3 3 5 4 3 2 2 2 3 2 3 3 3 3 3 4 4 4 5 5 7 7 7 7 8 8 9 9 10 10 11 12 13 13 13 12
2 2 3 2 3 3 4 6 1 0 2 3 3 3 12 13 4 2 5 9 9 10 12 13 13 11 12 9 8 9 10 10 12 10 10 8 7 7 7 7 6 5 5 5 5 6 5 4 3 3 2 2 1 2 2 3 3 3 3 3 3 3 4 4 4 3 2 1 1 1 2 3 3 3 4 4 4 5 5 6 6 7 7 7 7 7 7 7 8 8 12 10 11 14 13 13 13
2 3 3 7 2 5 8 3 2 1 1 5 2 7 17 19 13 6 9 10 12 15 15 16 14 11 11 11 11 12 12 12 13 10 10 9 8 7 7 6 6 5 5 5 5 4 4 3 3 2 2 2 2 2 3 3 3 3 3 3 3 4 4 4 3 4 4 1 1 0 1 2 3 3 4 5 6 6 7 7 7 8 8 8 8 8 8 8 8 9 11 13 9 10 13 13 12
4 5 5 3 4 7 5 6 3 0 5 6 7 10 14 17 18 9 6 11 15 17 11 9 7 10 11 12 12 12 14 14 8 8 9 8 8 9 7 6 6 5 5 5 5 4 4 3 2 1 2 3 2 2 2 3 2 3 4 4 3 3 3 4 4 4 4 3 1 0 1 2 2 3 3 4 4 6 6 7 8 8 9 9 10 11 10 9 11 12 11 11 13 10 10 12 12
2 3 2 6 6 9 5 4 3 0 1 10 13 10 14 18 19 17 7 8 11 11 11 13 11 12 13 13 15 16 15 16 7 8 9 9 10 9 7 6 6 5 5 5 5 5 5 5 3 4 4 3 3 3 2 2 1 3 2 3 5 5 5 5 4 4 4 5 1 0 1 1 2 3 4 5 6 6 6 7 8 8 8 8 8 8 8 10 11 12 12 11 14 15 11 9 11
2 2 4 8 4 10 6 3 1 4 3 6 4 5 12 16 18 18 6 7 15 15 14 15 15 14 13 16 17 17 15 3 6 7 8 7 8 8 5 6 6 8 6 5 6 7 6 4 4 5 3 3 4 4 3 2 2 2 2 5 5 6 6 5 6 5 5 4 1 2 3 3 3 4 5 5 5 6 7 7 7 7 7 7 7 8 10 10 12 10 10 12 8 13 12 8 10
1 4 3 3 9 5 10 3 2 0 2 9 6 10 15 17 18 20 16 15 13 10 15 19 15 15 14 14 16 13 8 10 9 12 10 10 10 8 7 6 7 9 9 8 7 5 4 4 5 4 4 4 4 4 3 3 3 3 3 4 3 5 5 5 5 6 5 5 3 4 4 4 5 5 5 5 6 6 6 7 7 6 6 7 8 9 7 9 7 8 10 11 13 8 11 9 10
3 1 1 9 3 3 8 1 3 1 2 6 6 15 17 17 16 22 22 8 12 8 13 16 11 14 16 17 15 15 16 14 16 17 16 12 11 9 6 7 8 6 7 6 5 6 5 5 4 4 5 4 4 4 3 4 4 4 4 4 5 5 6 4 5 5 4 3 4 3 3 3 3 5 4 5 5 6 6 7 7 7 8 7 8 10 9 9 8 10 11 11 13 16 12 11 9
2 5 5 5 5 6 8 5 5 5 2 1 7 14 15 9 10 9 3 2 2 8 6 10 9 10 9 6 9 14 18 17 15 14 13 12 12 11 10 9 8 8 8 8 7 6 5 6 6 5 5 5 4 3 4 3 2 3 3 4 5 5 4 5 4 5 5 3 3 3 4 3 4 4 4 4 4 5 4 5 7 7 8 8 7 8 9 8 9 8 10 11 10 11 17 14 12
3 7 11 8 6 6 4 4 5 5 3 3 4 10 9 1 3 10 8 3 4 3 5 14 10 8 7 11 14 10 11 12 16 17 17 15 13 9 8 9 9 9 9 9 8 7 5 5 4 4 4 4 4 4 4 3 3 3 3 4 5 4 6 7 7 9 9 7 7 5 4 3 4 4 4 4 4 5 5 5 6 7 7 7 7 8 8 8 8 8 9 8 11 10 12 15 17
1 5 3 7 3 1 1 3 5 6 2 2 3 5 19 4 2 5 5 3 10 5 6 15 6 8 9 13 12 10 12 11 10 10 12 14 13 12 11 11 11 11 10 8 7 6 6 5 4 4 5 4 3 3 3 3 3 3 3 3 4 4 5 5 4 5 6 6 5 7 7 6 5 6 6 5 6 6 6 6 7 7 7 7 8 8 9 10 9 8 8 8 8 10 10 13 18
5 1 4 6 4 1 2 1 2 6 0 3 2 5 11 19 7 10 11 8 11 13 15 14 11 9 11 12 10 9 12 13 14 16 17 15 14 16 15 13 11 12 10 7 7 6 6 7 5 5 4 3 3 3 3 3 4 3 3 4 4 4 4 7 6 6 4 4 7 8 6 6 6 5 7 6 6 7 6 7 7 8 9 8 7 8 9 9 10 7 9 10 9 8 10 12 15
3 3 5 3 2 3 3 1 2 2 5 9 6 1 2 10 3 4 2 5 10 15 15 14 10 9 11 12 10 11 12 14 15 15 17 17 17 15 13 13 11 10 8 9 9 7 7 5 4 3 3 3 3 3 3 3 3 3 4 3 4 4 5 5 5 5 5 5 7 7 7 7 6 6 6 7 7 6 6 7 8 8 9 10 8 9 8 9 12 12 12 10 10 10 10 13 13
1 5 4 6 6 5 2 1 0 5 4 15 7 8 5 22 4 4 3 2 8 11 13 14 11 8 7 9 9 9 8 9 12 14 14 15 15 13 11 10 10 10 9 8 7 5 5 4 3 3 3 2 2 3 3 3 3 2 3 3 4 6 4 6 4 7 6 5 7 8 7 7 7 7 6 6 8 7 7 7 8 9 10 10 9 9 11 11 10 11 12 11 12 12 11 11 15
5 4 2 4 6 4 3 6 2 3 6 15 6 16 9 12 2 9 9 9 11 9 5 7 7 8 6 6 8 9 10 10 10 11 11 12 10 11 10 11 10 8 6 6 5 5 4 4 4 3 3 2 2 3 2 3 2 2 3 3 4 6 6 6 7 8 7 7 8 9 8 8 7 8 7 7 7 7 8 8 9 9 9 10 11 9 10 9 11 11 11 13 13 13 13 14 18
3 1 2 6 3 5 3 4 4 1 11 3 1 10 8 10 5 6 6 4 3 9 7 7 8 10 7 5 6 8 8 9 9 10 10 11 9 9 7 10 9 8 6 5 5 4 4 4 3 3 2 2 3 2 2 3 2 3 2 3 4 5 5 6 7 9 8 9 8 10 9 9 9 8 8 8 8 6 8 9 8 9 9 9 10 10 10 9 10 10 10 12 10 12 13 15 16
4 4 4 1 6 7 5 3 2 6 10 1 2 4 5 17 19 4 7 11 7 8 8 8 8 9 4 4 6 7 7 7 10 11 11 12 15 14 12 10 8 8 8 8 8 6 5 4 4 3 3 2 3 2 2 3 2 3 3 3 4 4 5 5 7 8 7 7 8 9 9 10 9 10 9 9 9 9 8 9 8 8 10 10 10 11 11 10 11 11 12 12 13 13 12 15 15
7 6 5 4 0 0 6 5 2 7 6 3 2 2 10 10 10 15 20 19 13 10 10 8 9 9 5 4 5 6 8 10 11 11 12 14 15 13 11 11 10 9 9 9 7 6 5 4 4 3 4 2 2 1 2 2 3 3 3 3 4 4 5 5 6 7 8 7 7 9 9 10 11 10 10 10 8 9 8 9 10 12 11 11 11 11 11 12 10 10 11 11 13 13 14 18 18
9 3 9 8 8 6 5 3 6 11 8 1 5 3 9 2 5 1 10 11 8 6 5 7 6 4 4 4 4 6 7 8 9 11 13 15 14 13 12 11 10 9 8 7 6 5 5 5 4 4 3 2 1 2 1 3 3 3 3 3 4 4 5 5 6 6 7 8 8 9 10 9 9 11 9 10 10 10 11 9 10 12 10 10 11 11 11 10 10 11 13 14 15 14 16 18 18
2 3 5 5 9 6 6 5 3 4 7 9 4 9 4 7 1 2 2 2 6 2 5 5 8 1 3 3 7 9 9 9 10 11 12 12 12 11 10 10 9 8 7 6 6 5 5 6 5 4 3 2 1 1 2 2 3 3 3 4 4 4 4 5 6 6 7 7 9 9 10 9 9 10 10 10 10 9 12 11 12 11 12 11 12 11 11 12 12 13 13 13 15 12 16 19 18
4 6 7 7 1 5 2 2 1 1 3 17 2 12 11 3 12 10 8 3 11 3 7 7 7 1 3 7 8 8 9 10 11 13 13 13 9 10 10 10 8 7 7 7 7 7 7 6 4 3 2 1 1 2 2 3 3 4 4 4 4 4 4 5 7 8 9 8 8 9 9 10 10 9 10 10 11 11 10 10 12 12 12 11 12 12 13 12 12 13 13 14 15 14 16 17 16
8 3 8 2 2 4 5 5 3 2 4 11 1 15 21 5 15 4 1 6 6 6 11 10 3 2 5 10 9 9 11 11 11 9 9 10 11 11 9 8 9 9 8 7 6 5 6 5 4 2 1 1 2 1 2 2 3 4 4 4 4 4 5 6 6 8 8 9 9 8 8 9 9 9 10 10 10 12 12 12 12 13 11 12 12 11 11 11 12 12 13 13 14 13 16 16 16
2 2 2 5 3 1 1 4 4 3 5 9 10 7 16 14 16 3 6 7 8 9 10 6 6 6 10 12 10 7 6 7 10 13 12 13 14 13 12 11 8 8 7 7 5 6 4 3 3 2 2 2 2 2 2 2 3 4 3 4 4 5 5 6 7 8 8 9 10 9 9 10 10 10 10 11 12 12 13 12 11 11 11 10 10 12 12 13 13 16 14 16 15 15 16 16 14
1 0 1 1 2 2 5 7 3 4 6 2 18 11 22 4 9 6 9 12 10 10 6 10 12 12 12 11 9 10 11 12 12 12 13 14 13 12 12 11 10 8 6 5 5 5 5 4 3 2 1 1 1 2 3 4 4 4 4 4 4 4 5 6 7 7 8 9 10 10 10 10 10 10 10 12 11 12 12 13 12 12 14 14 15 14 15 15 14 15 15 14 15 16 17 17 17
2 2 2 1 0 2 4 1 5 6 4 7 5 13 23 7 10 9 10 8 12 11 12 10 10 12 14 12 11 11 12 12 13 14 14 14 13 11 10 9 8 6 5 5 6 7 4 3 3 2 2 2 2 3 3 3 3 3 3 5 5 5 6 6 7 8 9 9 9 10 9 9 10 10 11 13 13 14 15 14 15 14 15 16 14 18 14 15 16 16 16 16 17 17 18 17 16
15 15 14 15 9 4 2 13 3 2 4 8 6 20 20 12 7 7 7 8 8 11 11 10 9 12 12 12 11 11 11 13 13 13 12 12 11 10 8 7 5 6 6 6 5 5 4 3 3 2 1 1 2 3 3 3 3 3 4 5 6 5 6 6 8 8 9 9 9 9 10 11 11 12 12 13 15 14 13 16 13 17 17 16 18 18 16 17 14 19 17 14 15 16 18 18 16
Wind_Direction
356 346 207 94 76 103 59 0 156 338 58 355 42 27 183 262 207 37 166 15 41 308 300 63 54 30 188 170 130 133 63 107 223 134 207 222 200 325 355 349 342 352 359 348 348 349 360 5 29 36 39 41 41 41 38 37 36 35 35 36 33 33 32 29 24 16 7 355 348 339 326 315 312 311 304 293 287 285 274 285 282 273 281 288 290 291 294 295 297 302 306 306 306 299 287 291 294
65 28 66 2 1 62 261 131 101 354 39 66 254 106 232 299 74 224 148 139 168 133 140 85 78 77 86 107 121 106 38 14 177 146 152 238 287 334 355 350 340 356 348 349 356 357 4 7 27 37 41 42 42 42 42 40 38 36 35 33 34 32 31 28 28 27 23 16 10 3 352 345 334 326 324 313 306 306 310 302 298 293 283 286 290 290 293 297 302 302 299 297 305 305 303 294 291
38 33 49 32 31 76 94 30 311 67 76 49 274 208 341 136 95 42 220 147 137 155 164 100 99 69 39 36 41 60 198 320 25 0 118 350 64 328 336 336 345 351 353 352 1 4 3 14 30 39 41 43 43 42 41 40 40 37 36 35 34 32 30 29 26 25 25 24 21 19 14 6 355 349 337 327 326 314 317 318 309 308 304 295 287 289 289 294 296 297 300 302 302 304 300 304 312
80 35 140 67 240 28 58 28 88 122 102 205 295 278 192 170 134 120 52 147 153 141 211 29 55 280 102 56 108 75 54 23 294 227 38 9 87 284 312 328 342 340 13 12 1 4 4 21 36 41 43 44 43 43 41 41 39 39 37 36 35 33 31 30 28 26 24 24 23 22 22 20 15 7 357 345 343 339 326 319 321 318 319 316 305 292 290 290 291 295 297 299 300 301 303 305 306
61 350 77 100 110 5 103 117 138 102 304 203 140 269 258 208 132 141 219 254 262 263 301 152 81 341 106 121 21 133 191 260 9 67 127 312 341 324 316 336 338 13 23 8 7 4 6 31 38 40 43 43 43 42 42 40 39 38 38 37 36 34 33 32 29 27 26 24 23 22 22 22 19 17 14 8 354 341 337 333 328 324 318 315 315 307 299 292 291 292 295 297 298 298 299 301 305
62 43 3 87 23 162 64 66 52 79 221 146 100 208 224 206 130 156 155 93 34 101 144 72 157 177 29 10 167 106 230 93 184 16 108 347 336 324 323 310 346 40 18 14 12 7 10 35 39 41 41 41 42 41 40 39 38 37 36 36 35 34 33 32 31 30 28 26 23 20 21 21 19 17 15 13 12 7 359 352 340 331 324 321 319 315 305 299 291 293 296 296 296 296 296 301 302
259 47 359 22 33 46 171 123 164 172 265 157 267 236 213 188 138 132 136 84 346 41 5 125 118 99 72 274 13 86 219 244 68 137 113 32 345 323 312 315 51 45 23 17 12 10 14 37 40 40 39 40 40 40 40 40 39 38 36 35 34 33 33 32 31 30 27 25 23 21 20 21 18 16 15 13 11 9 7 4 360 354 343 333 325 319 315 311 306 298 295 296 295 296 295 296 288
59 118 317 106 316 48 43 168 149 163 345 180 190 224 228 199 163 127 167 122 204 120 70 129 104 98 241 54 158 230 11 93 110 49 32 24 317 322 338 6 54 37 25 16 18 17 15 37 40 41 39 39 40 40 39 39 38 38 37 35 34 33 33 33 32 29 27 25 24 24 23 21 19 17 16 13 11 10 8 5 1 357 355 351 344 331 319 313 311 306 302 296 296 294 291 291 285
3 86 247 68 50 30 66 76 229 227 280 280 280 215 342 184 162 118 85 213 81 132 159 185 171 83 217 83 141 260 333 348 40 41 35 8 9 337 17 36 61 41 26 24 20 19 21 33 42 41 40 39 41 41 40 40 38 37 35 35 34 34 33 33 31 29 28 26 26 25 24 21 19 19 18 16 12 11 9 6 2 358 354 352 349 346 339 327 319 313 305 305 302 298 295 286 281
36 47 275 111 137 48 27 296 104 190 232 236 234 200 126 190 156 136 148 123 166 141 209 167 177 133 143 137 144 271 141 329 85 68 18 330 299 333 52 52 62 61 39 25 21 21 27 28 39 41 40 41 41 41 41 40 39 38 36 35 34 34 34 33 30 29 27 27 27 26 24 21 19 18 18 17 15 12 10 8 3 360 357 354 350 346 344 341 336 328 321 317 315 311 302 291 279
300 15 131 74 33 103 179 223 263 315 252 313 298 239 200 166 134 112 130 135 127 154 154 131 47 130 121 193 211 263 51 79 106 143 226 308 293 74 65 39 50 62 53 32 24 29 29 30 31 37 39 39 39 40 40 39 39 38 37 36 35 34 33 32 31 29 27 26 26 25 23 21 18 17 16 15 14 13 10 8 3 0 358 356 354 349 346 343 340 338 337 331 322 314 310 299 285
5 32 5 100 160 157 224 161 238 266 304 350 206 340 186 149 117 119 142 131 188 148 174 153 194 145 104 145 250 229 98 111 166 198 236 283 92 36 59 41 46 39 49 43 40 39 37 36 33 31 37 36 36 35 37 38 37 37 36 35 35 34 33 32 31 28 27 26 26 25 23 20 18 16 14 13 13 11 10 7 3 0 359 358 356 355 353 350 345 343 341 336 330 320 311 305 296
116 98 88 79 188 180 182 119 212 280 341 271 170 100 98 125 192 179 167 110 138 144 273 215 136 101 148 179 259 290 143 194 212 214 232 124 56 23 19 49 44 44 36 36 50 41 38 38 37 34 34 35 30 30 31 36 35 36 36 35 34 34 32 32 31 30 27 26 25 24 22 19 18 16 14 12 11 10 8 6 2 0 359 357 355 353 351 349 346 343 337 335 333 326 317 309 304
118 180 121 141 45 139 137 186 356 158 255 231 242 159 113 136 253 165 133 133 188 170 221 228 144 142 102 58 214 194 200 199 195 211 207 47 57 48 47 37 44 43 34 44 48 46 39 36 37 35 34 30 30 26 21 26 34 32 34 34 34 34 32 31 29 28 26 26 25 23 20 18 16 14 14 12 11 9 7 3 359 358 358 357 355 352 350 349 348 345 341 338 334 330 326 320 311
110 138 84 118 68 89 232 133 201 164 226 197 211 144 104 1 98 99 165 144 220 215 311 14 176 136 231 153 243 198 185 191 186 163 113 64 67 55 40 36 44 40 39 44 50 45 41 37 36 35 33 32 29 28 26 13 25 27 29 31 31 31 32 30 30 27 23 20 20 20 18 16 13 10 9 10 9 7 6 3 358 357 356 355 354 352 350 350 349 346 342 339 337 333 331 329 325
136 83 86 104 183 143 233 161 43 117 250 186 260 142 91 12 131 133 234 148 165 350 118 187 359 201 271 186 229 165 168 159 164 118 100 90 43 40 33 27 48 40 41 40 45 41 46 46 34 35 33 31 29 30 22 22 16 25 21 24 26 26 27 25 25 23 20 14 15 13 11 11 11 7 5 4 5 2 -0 0 359 357 356 355 352 350 351 349 346 343 343 340 338 335 332 329 324
67 82 51 42 192 165 229 158 147 195 244 257 242 187 150 173 305 87 289 110 127 167 40 241 245 354 187 231 245 136 147 134 118 104 96 105 70 54 25 26 26 45 29 37 45 35 43 45 34 35 29 28 30 27 27 22 15 25 16 14 17 20 20 18 14 12 13 6 11 8 11 8 6 1 358 1 3 357 354 354 356 357 356 354 352 350 348 346 344 344 345 344 342 338 335 327 320
58 64 112 58 202 149 201 177 184 219 140 224 188 210 114 170 165 195 47 38 49 23 72 312 354 33 273 235 73 110 124 130 133 128 142 141 129 122 77 30 42 51 32 17 23 33 38 38 39 39 28 20 27 25 23 17 16 16 14 11 8 14 9 13 5 6 3 5 3 5 7 6 3 357 352 354 356 354 350 350 352 354 353 353 350 348 347 344 342 345 345 345 345 343 339 331 326
87 130 84 237 171 235 153 198 199 124 234 186 196 160 169 218 141 192 126 256 131 142 278 13 21 1 44 68 91 98 118 137 145 149 154 153 154 126 112 83 59 45 32 19 18 25 30 40 35 35 28 23 24 24 20 13 16 10 8 7 4 7 4 7 5 2 4 1 359 359 2 359 357 354 352 352 350 344 345 347 349 352 350 349 346 346 344 343 342 344 343 343 342 341 340 335 328
207 113 72 262 209 247 207 173 201 219 127 148 193 214 172 266 141 148 206 180 203 199 187 290 214 196 185 173 137 129 130 152 161 168 166 149 150 138 132 106 89 68 64 53 16 22 32 35 28 42 27 20 33 19 20 14 15 9 4 2 1 357 358 360 2 2 5 3 359 358 355 351 352 348 344 345 348 348 345 343 344 346 345 344 340 342 339 337 340 340 339 340 340 336 335 330 327
225 70 153 227 196 134 255 168 233 198 15 149 137 58 165 207 180 160 159 111 246 251 228 183 194 183 184 184 176 165 161 162 175 182 154 150 162 169 148 153 127 105 193 187 33 8 17 37 21 18 11 23 26 15 16 6 5 3 359 358 357 2 359 0 4 7 7 6 1 358 349 349 347 348 345 348 350 344 344 345 345 345 342 340 339 339 335 331 334 335 335 336 334 332 329 327 325
98 88 201 205 108 271 265 189 152 133 132 105 134 141 233 115 49 174 162 193 224 207 225 220 205 174 169 175 188 171 170 170 173 172 166 158 150 147 144 91 95 119 24 52 354 4 3 23 38 8 21 13 25 17 9 354 7 2 355 352 356 353 360 357 1 4 6 2 359 355 353 356 353 349 347 349 348 347 344 345 342 339 338 337 339 333 331 329 330 329 329 330 327 327 323 320 319
313 308 288 205 205 201 281 150 199 136 125 132 153 221 100 165 233 199 195 213 224 223 255 203 176 184 170 147 148 168 173 175 176 177 171 158 158 151 138 97 84 49 18 29 343 1 7 20 13 15 17 8 6 5 358 5 1 349 347 342 359 342 354 352 351 351 356 352 359 358 3 357 356 356 353 349 352 349 343 342 338 338 334 333 333 333 327 326 325 325 324 323 322 320 320 317 317
107 150 356 228 178 222 0 288 111 164 143 209 203 99 164 158 242 192 200 235 242 286 240 183 147 138 139 151 172 174 176 172 184 189 183 175 170 177 166 118 103 23 68 2 14 349 17 10 6 15 11 13 351 351 355 358 343 349 340 347 347 334 348 340 336 341 344 354 356 357 2 358 356 355 353 352 352 348 346 338 335 333 332 327 325 326 324 323 322 321 318 318 320 318 315 317 315
88 51 225 255 189 244 286 241 51 182 238 10 121 147 224 187 200 87 234 233 235 59 88 117 130 137 150 159 171 172 171 182 180 193 195 160 149 125 112 129 161 136 99 88 23 49 15 15 6 20 12 9 344 339 6 335 348 348 347 345 341 332 340 326 329 338 350 350 352 355 357 357 359 1 357 354 345 347 343 341 340 335 331 327 328 323 321 320 320 319 318 313 315 314 313 312 314
121 200 170 326 264 287 293 289 233 206 211 136 127 228 285 257 318 253 241 232 150 120 105 129 135 151 169 177 176 172 175 179 181 173 179 171 171 120 131 141 139 123 162 187 168 57 7 11 30 10 10 356 343 11 350 359 351 354 342 341 329 337 329 324 336 347 345 354 353 360 359 5 6 1 356 353 352 346 342 339 338 338 334 333 331 327 324 318 314 315 312 312 309 308 307 307 308
154 245 201 211 270 328 288 205 249 187 230 187 185 217 258 354 72 277 49 170 133 123 137 151 157 171 177 180 183 186 176 186 183 176 138 158 159 145 165 156 150 158 157 149 152 57 5 28 13 6 7 8 14 18 347 359 352 348 333 333 335 336 330 337 342 344 350 353 357 360 6 14 7 1 358 351 348 344 343 345 343 340 337 336 335 328 326 321 314 307 307 306 307 305 300 300 302
61 204 331 283 323 253 296 317 291 84 271 167 190 245 267 279 85 245 164 179 161 146 162 169 182 177 181 186 187 193 197 198 193 159 175 171 179 167 165 157 175 169 142 154 138 321 43 59 354 8 13 13 22 358 1 354 345 334 334 342 339 331 336 335 337 343 346 354 6 10 21 14 3 359 359 352 349 346 346 346 339 339 335 334 336 331 327 321 316 310 304 299 295 296 296 294 291
170 95 332 296 349 45 340 220 279 165 247 145 161 259 252 168 232 259 173 149 163 158 168 184 188 188 189 192 195 199 202 200 191 192 191 188 178 172 164 186 162 162 197 149 129 102 87 20 39 351 15 17 12 352 342 329 327 332 335 332 325 329 329 329 328 333 337 0 13 10 21 1 2 6 3 360 351 348 340 334 335 332 331 333 331 328 324 322 319 318 312 307 300 294 290 290 289
145 35 98 330 360 355 21 133 12 145 256 145 219 297 251 212 233 198 165 149 125 148 187 192 196 194 198 199 202 207 214 200 198 202 191 186 174 175 162 196 176 157 171 154 106 90 57 36 25 355 23 7 345 341 329 328 311 316 321 318 316 323 317 316 307 306 320 11 15 6 18 355 11 12 7 358 350 344 341 337 334 333 333 331 326 323 324 323 317 314 312 312 308 306 300 294 293
183 269 67 30 9 276 283 99 200 154 146 162 89 217 284 229 251 210 175 162 163 185 199 199 201 202 202 205 205 206 214 203 197 204 198 183 177 173 171 182 186 179 123 114 122 120 40 22 25 14 7 328 329 315 298 294 299 309 311 307 309 310 301 299 290 290 294 18 24 16 15 6 16 11 5 356 347 343 338 333 329 329 328 327 325 325 322 318 316 316 316 309 302 300 298 294 295
15 18 300 324 108 277 296 234 176 183 342 5 99 273 251 280 269 200 179 180 175 196 198 203 205 205 204 205 209 208 213 205 218 211 200 190 173 177 176 180 186 171 155 155 134 109 129 208 183 174 260 249 268 259 278 281 283 291 298 297 303 292 289 284 282 286 306 13 30 14 13 10 6 1 355 353 344 338 329 325 322 322 328 329 328 325 324 319 318 314 311 309 305 298 296 295 293
352 83 266 276 340 265 337 21 262 314 125 352 176 240 312 294 286 282 190 177 196 207 208 211 211 210 205 208 207 208 209 221 223 216 204 185 188 175 181 173 174 177 166 149 158 160 170 221 204 182 227 232 267 292 307 297 298 293 285 282 278 280 281 278 283 290 315 18 30 17 13 2 347 347 347 346 344 329 326 323 321 322 327 326 322 322 318 316 316 313 310 310 305 302 299 291 291
311 21 223 208 233 297 290 304 43 321 156 217 247 224 247 254 245 202 190 194 195 219 219 218 215 210 209 209 207 208 210 205 208 202 197 188 186 187 180 174 176 163 167 167 169 167 178 190 200 206 220 230 222 252 256 266 268 271 271 269 272 262 270 267 267 281 290 330 53 20 22 345 338 340 342 342 339 331 331 326 324 326 325 325 324 319 313 311 310 312 311 312 311 307 299 297 294
255 288 306 305 298 215 245 308 259 49 154 218 258 242 262 269 266 198 205 196 202 219 214 217 213 207 208 209 210 212 211 209 207 195 185 188 185 189 182 179 163 163 166 174 176 188 191 211 210 213 221 240 262 247 257 265 275 280 278 284 283 274 284 281 278 285 290 314 29 69 21 333 328 335 338 340 341 339 335 334 332 333 333 330 327 321 319 317 314 310 305 302 295 291 294 292 290
227 193 208 200 264 269 216 236 276 137 287 276 222 236 256 267 274 254 202 200 206 226 225 236 219 213 212 212 214 213 214 216 203 190 186 186 186 184 188 176 169 170 169 168 178 180 195 219 211 252 237 225 231 239 255 268 279 280 305 307 294 272 278 278 270 264 282 293 276 107 344 313 319 327 327 333 332 332 332 331 332 334 336 334 331 330 327 329 323 316 307 300 297 284 277 285 286
103 112 151 235 235 275 274 229 259 19 317 251 255 242 256 265 268 271 223 199 228 235 228 228 221 212 210 213 215 215 213 214 185 190 191 188 190 191 187 169 171 172 169 172 172 194 194 192 171 217 228 214 202 218 241 217 256 308 292 266 281 292 287 280 274 275 277 269 232 230 302 283 303 322 332 338 336 333 332 331 333 333 330 326 318 311 312 315 316 312 306 299 298 296 287 280 279
167 190 205 271 207 261 266 279 22 310 170 288 286 260 256 258 269 269 243 178 229 218 227 234 225 218 214 213 217 215 215 146 164 201 204 197 196 197 180 175 163 160 194 176 186 199 198 194 182 218 231 211 214 206 210 206 194 196 241 270 277 293 299 297 305 310 297 291 291 335 330 329 333 332 329 332 330 333 331 332 327 319 320 310 303 305 309 306 305 301 302 298 279 289 292 291 289
97 198 234 294 268 251 281 307 5 323 145 260 289 283 267 262 261 268 255 231 242 212 212 232 216 219 220 216 220 214 194 198 191 203 198 198 197 195 183 183 183 177 177 186 197 190 203 202 210 216 218 207 221 213 197 211 217 224 201 249 247 272 256 248 256 265 280 286 310 338 333 329 331 326 322 323 325 326 323 319 313 310 306 307 307 302 296 298 295 299 306 304 304 274 279 288 281
153 116 168 238 234 10 305 299 7 304 181 293 310 289 276 265 255 256 262 243 249 226 223 236 216 222 219 217 209 203 204 195 197 195 197 194 195 190 189 188 188 181 179 191 196 200 205 206 210 208 223 218 222 223 213 215 209 226 239 246 258 240 259 262 260 269 273 289 306 296 282 283 290 293 303 311 316 317 315 310 309 308 307 307 305 306 309 306 309 311 310 302 302 303 299 293 299
261 195 219 253 263 233 199 269 318 285 334 104 286 280 272 232 237 266 328 352 239 257 250 254 238 232 236 235 215 207 204 198 197 196 195 192 193 195 190 190 181 182 187 192 196 200 195 203 206 199 210 216 216 223 222 216 227 270 270 273 256 266 270 254 249 251 228 247 282 288 276 265 269 271 276 273 275 283 281 286 296 298 298 299 298 296 300 303 305 299 298 297 296 299 301 296 284
318 230 206 223 227 259 292 340 3 3 329 331 24 335 283 299 226 252 272 332 282 262 244 256 236 227 223 228 224 207 211 197 197 195 192 190 190 185 195 190 183 189 192 200 194 198 190 205 201 206 219 222 226 229 218 197 212 227 274 306 318 314 317 327 328 327 326 327 312 296 286 274 267 268 267 274 271 276 279 281 285 291 291 295 295 292 291 295 292 291 288 286 292 292 294 298 291
63 269 197 212 214 192 347 342 27 309 241 313 43 118 287 127 242 243 270 262 278 264 221 261 249 225 216 229 224 203 198 194 197 190 188 190 192 187 194 191 189 188 201 194 194 196 197 202 198 196 203 214 221 233 216 205 227 229 235 248 248 262 278 271 254 272 280 291 291 297 296 298 294 292 293 286 289 287 289 290 291 291 292 292 294 293 294 295 295 290 286 280 282 291 296 289 289
237 253 111 100 107 127 189 115 199 246 298 281 221 177 264 285 230 241 246 268 270 280 274 262 253 233 225 230 220 204 197 195 190 192 191 193 187 189 189 190 190 192 193 188 191 195 196 208 195 196 200 210 227 231 238 211 226 242 255 263 267 274 260 279 285 273 267 277 291 290 293 288 288 284 286 286 282 286 288 290 294 299 302 297 294 289 292 296 295 287 288 286 284 276 277 276 284
220 210 129 128 132 175 148 114 232 244 8 295 196 115 297 258 273 344 99 208 261 260 261 267 258 235 231 233 219 208 201 196 189 190 191 188 191 192 185 188 194 193 186 185 191 193 198 201 186 171 199 209 239 238 238 243 227 239 243 265 286 271 273 280 285 285 287 284 283 289 288 287 284 277 273 282 280 279 287 294 299 301 301 301 298 292 287 292 295 297 295 287 280 277 268 275 276
243 144 96 84 72 68 94 113 163 317 56 276 178 195 192 279 171 151 354 186 249 248 247 254 261 247 232 230 223 208 199 197 198 197 188 190 191 188 188 184 190 194 193 189 187 182 190 184 190 173 212 210 230 252 243 255 243 237 269 273 282 292 297 295 287 293 295 293 290 292 291 291 288 287 279 276 287 290 294 296 298 299 300 298 295 290 292 288 285 285 285 282 280 276 276 274 275
122 105 88 7 40 34 32 67 82 34 269 264 210 191 168 280 185 178 153 200 202 222 268 279 276 273 248 229 210 199 195 195 194 192 192 191 186 184 182 188 190 195 192 187 192 195 190 186 195 186 209 219 232 244 242 258 254 248 257 273 284 297 300 296 305 302 304 306 303 301 300 296 291 287 287 284 282 293 296 297 296 294 292 292 292 289 283 283 284 284 283 282 278 278 281 277 273
130 81 105 18 337 16 36 338 40 162 265 265 274 179 186 214 283 225 233 289 220 176 207 233 256 259 251 224 217 202 193 191 184 182 186 181 183 194 182 189 188 191 188 194 207 200 191 192 180 201 225 229 240 247 251 258 255 267 267 278 289 289 288 295 297 299 302 299 298 298 299 296 293 290 288 290 292 293 295 293 290 290 288 285 284 284 282 279 281 279 280 278 276 272 271 273 269
92 81 40 79 274 21 316 32 296 197 232 231 42 157 313 236 244 221 249 256 236 223 212 213 242 264 238 224 211 200 190 178 183 187 182 184 188 186 190 188 185 189 190 198 202 200 190 177 183 190 252 228 243 244 249 263 280 285 291 294 291 282 284 284 287 287 290 293 297 295 297 295 296 296 296 296 295 298 296 296 294 289 290 287 283 279 277 275 275 278 276 275 272 270 272 269 262
121 153 144 102 275 130 261 268 230 299 288 257 156 133 248 275 279 216 229 235 228 224 221 235 242 259 257 214 207 194 191 190 190 187 188 190 189 187 183 185 187 187 193 194 197 191 185 184 183 189 238 233 244 261 264 293 293 292 293 288 279 279 278 278 278 285 292 291 290 290 290 291 295 291 296 293 295 293 288 281 286 288 283 279 277 276 275 275 272 272 273 274 275 275 276 273 270
198 121 152 182 141 155 233 207 242 258 257 245 243 53 237 18 238 260 204 226 239 236 237 241 263 258 249 222 199 197 195 198 189 191 194 192 190 183 183 185 185 187 188 193 191 189 169 189 187 200 242 254 241 269 307 304 298 295 291 273 270 270 272 275 280 286 294 295 291 288 286 288 288 294 292 294 295 292 287 285 283 282 280 278 277 276 276 272 270 274 275 278 278 275 273 271 270
174 163 82 104 224 126 222 205 202 300 341 312 161 217 191 209 320 298 221 306 265 281 256 269 269 252 202 184 199 204 201 193 192 196 198 198 191 183 182 186 185 183 189 189 188 177 179 195 189 198 213 252 269 297 297 274 283 286 281 280 274 271 280 289 294 293 288 285 288 289 289 288 288 292 293 294 293 291 291 289 287 279 279 277 277 275 275 276 276 274 274 274 274 275 275 271 269
209 116 196 211 151 134 17 352 66 65 66 265 139 277 263 331 265 219 247 223 251 244 259 250 253 226 172 222 219 209 201 195 194 199 198 192 189 194 187 181 182 186 185 191 192 184 185 183 182 205 224 238 265 281 267 281 285 290 282 279 282 290 292 297 296 293 290 287 286 288 290 291 293 291 293 295 294 292 288 286 288 287 284 279 277 276 273 273 274 273 272 273 269 269 265 266 268
104 196 233 167 145 109 128 219 323 64 210 269 73 262 285 315 288 55 136 209 259 240 240 237 253 197 214 234 224 207 203 202 200 203 200 195 194 189 188 187 184 184 189 189 194 181 179 169 167 187 224 268 274 252 269 266 280 279 282 284 289 293 299 295 291 290 292 293 291 291 291 294 294 295 293 294 293 293 291 290 288 287 284 283 279 276 272 271 274 275 274 269 271 271 272 266 255
147 191 239 115 222 217 305 87 268 261 254 268 277 279 269 242 260 231 224 204 233 245 242 235 239 223 230 237 231 214 201 192 196 200 195 194 195 192 187 185 185 188 185 184 174 162 156 155 161 162 210 233 248 265 272 283 270 278 280 296 306 309 301 294 290 292 296 296 298 297 296 293 294 295 296 295 295 292 290 289 286 283 284 281 282 283 284 283 283 284 280 280 277 276 273 273 272
41 246 14 318 100 174 132 196 191 115 250 10 277 310 271 128 194 229 252 192 211 221 238 230 224 220 223 230 220 205 196 201 201 199 200 198 195 191 184 181 183 186 182 181 161 147 155 161 156 166 177 233 283 284 282 281 276 276 295 308 305 297 296 293 297 303 301 300 298 298 297 298 296 297 294 294 291 289 289 290 289 290 291 291 291 290 290 287 283 280 279 278 276 275 273 273 273
149 173 256 349 139 231 106 322 159 173 197 217 282 294 275 235 182 211 236 199 199 196 216 221 220 224 225 223 214 204 202 201 204 201 198 195 193 189 186 181 182 176 171 159 160 163 157 143 156 165 195 248 253 258 258 266 278 287 308 304 299 302 300 302 305 304 300 298 299 297 297 295 298 293 296 294 292 292 292 290 292 292 293 293 293 292 291 287 285 278 277 274 274 273 272 271 272
179 178 206 186 141 143 136 256 84 155 195 235 164 254 273 277 147 177 208 208 186 210 205 220 215 224 221 223 220 202 202 211 204 201 194 192 191 188 179 178 163 156 155 159 158 131 133 156 169 169 180 221 250 272 255 276 296 313 304 303 305 308 307 310 307 302 298 300 301 301 299 299 294 294 294 292 294 294 293 296 294 295 295 292 291 292 289 288 281 280 275 273 274 273 271 271 271